TimeCDT,TemperatureF,Dew PointF,Humidity,Sea Level PressureIn,VisibilityMPH,Wind Direction,Wind SpeedMPH,Gust SpeedMPH,PrecipitationIn,Events,Conditions,WindDirDegrees,DateUTC
12:53 AM,48.9,41.0,74,29.81,10.0,NE,18.4,27.6,N/A,,Partly Cloudy,40,2012-10-04 05:53:00
1:53 AM,48.9,41.0,74,29.77,10.0,NE,18.4,26.5,N/A,,Overcast,50,2012-10-04 06:53:00
2:53 AM,48.9,41.0,74,29.71,10.0,NE,15.0,23.0,N/A,,Overcast,50,2012-10-04 07:53:00
3:53 AM,50.0,42.1,74,29.70,10.0,NE,12.7,25.3,N/A,,Overcast,50,2012-10-04 08:53:00
4:53 AM,48.0,42.1,80,29.67,10.0,NNE,11.5,-,N/A,,Clear,20,2012-10-04 09:53:00
5:53 AM,46.0,41.0,83,29.65,10.0,North,16.1,-,N/A,,Clear,350,2012-10-04 10:53:00
6:24 AM,46.4,39.2,76,29.67,10.0,WNW,12.7,-,N/A,,Mostly Cloudy,300,2012-10-04 11:24:00
6:53 AM,46.0,39.9,79,29.69,10.0,WNW,17.3,-,N/A,,Overcast,290,2012-10-04 11:53:00
7:34 AM,44.6,39.2,81,29.69,10.0,WNW,20.7,29.9,N/A,,Overcast,300,2012-10-04 12:34:00
7:53 AM,43.0,41.0,93,29.71,4.0,WNW,17.3,-,0.00,Rain,Light Rain,300,2012-10-04 12:53:00
8:05 AM,37.4,35.6,93,29.70,2.5,West,25.3,35.7,0.02,Rain,Light Rain,280,2012-10-04 13:05:00
8:15 AM,35.6,33.8,93,29.71,3.0,WNW,28.8,35.7,0.02,Rain,Light Rain,300,2012-10-04 13:15:00
8:26 AM,35.6,33.8,93,29.72,4.0,WNW,26.5,35.7,0.02,,Overcast,300,2012-10-04 13:26:00
8:53 AM,34.0,32.0,92,29.77,6.0,WNW,21.9,33.4,0.02,,Overcast,300,2012-10-04 13:53:00
9:12 AM,33.8,30.2,87,29.75,1.8,WNW,25.3,33.4,0.00,Snow,Light Snow,300,2012-10-04 14:12:00
9:24 AM,33.8,30.2,87,29.75,3.0,WNW,23.0,34.5,0.01,Snow,Light Snow,300,2012-10-04 14:24:00
9:41 AM,33.8,30.2,87,29.76,1.8,WNW,21.9,32.2,0.01,Snow,Light Snow,300,2012-10-04 14:41:00
9:53 AM,33.1,30.9,92,29.80,0.5,NW,19.6,34.5,0.01,Fog-Snow,Snow,320,2012-10-04 14:53:00
10:01 AM,33.8,30.2,87,29.77,1.2,NW,19.6,33.4,0.00,Snow,Light Snow,310,2012-10-04 15:01:00
10:07 AM,33.8,30.2,87,29.78,3.0,WNW,21.9,31.1,0.00,Snow,Light Snow,300,2012-10-04 15:07:00
10:20 AM,33.8,32.0,93,29.79,2.5,WNW,20.7,28.8,0.00,Snow,Light Snow,290,2012-10-04 15:20:00
10:26 AM,33.8,32.0,93,29.80,1.2,WNW,17.3,-,0.01,Snow,Light Snow,290,2012-10-04 15:26:00
10:33 AM,33.8,30.2,87,29.81,0.5,West,17.3,-,0.01,Fog-Snow,Snow,280,2012-10-04 15:33:00
10:44 AM,33.8,30.2,87,29.82,0.2,WNW,19.6,26.5,0.03,Fog-Snow,Heavy Snow,290,2012-10-04 15:44:00
10:53 AM,33.1,30.9,92,29.86,0.8,West,19.6,-,0.04,Snow,Light Snow,280,2012-10-04 15:53:00
10:59 AM,33.8,32.0,93,29.82,2.0,West,21.9,29.9,0.00,Snow,Light Snow,270,2012-10-04 15:59:00
11:05 AM,33.8,32.0,93,29.83,3.0,West,20.7,32.2,0.00,Snow,Light Snow,280,2012-10-04 16:05:00
11:33 AM,35.6,33.8,93,29.84,9.0,West,27.6,36.8,0.00,Snow,Light Snow,280,2012-10-04 16:33:00
11:53 AM,35.1,32.0,89,29.89,9.0,WNW,26.5,36.8,0.01,,Overcast,290,2012-10-04 16:53:00
12:53 PM,37.0,33.1,86,29.92,10.0,WNW,28.8,41.4,0.00,,Overcast,300,2012-10-04 17:53:00
1:53 PM,37.0,32.0,82,29.95,10.0,WNW,25.3,40.3,0.00,,Overcast,300,2012-10-04 18:53:00
2:53 PM,37.0,32.0,82,29.97,9.0,WNW,32.2,38.0,0.00,,Overcast,300,2012-10-04 19:53:00
3:53 PM,36.0,32.0,86,30.00,9.0,WNW,28.8,38.0,0.00,,Overcast,300,2012-10-04 20:53:00
4:53 PM,35.6,30.2,81,29.99,10.0,WNW,24.2,33.4,N/A,,Overcast,290,2012-10-04 21:53:00
5:53 PM,35.1,32.0,89,30.06,7.0,WNW,18.4,28.8,0.00,,Overcast,290,2012-10-04 22:53:00
6:09 PM,35.6,32.0,87,30.02,8.0,WNW,19.6,31.1,0.00,,Overcast,290,2012-10-04 23:09:00
6:53 PM,34.0,30.0,85,30.07,9.0,WNW,24.2,29.9,0.00,,Overcast,290,2012-10-04 23:53:00
7:53 PM,33.8,30.2,87,30.04,10.0,WNW,20.7,32.2,N/A,,Overcast,300,2012-10-05 00:53:00
8:12 PM,33.8,30.2,87,30.04,10.0,WNW,23.0,29.9,N/A,,Overcast,300,2012-10-05 01:12:00
8:29 PM,33.8,28.4,81,30.04,10.0,WNW,21.9,29.9,N/A,,Overcast,300,2012-10-05 01:29:00
8:43 PM,33.8,30.2,87,30.04,10.0,WNW,19.6,33.4,N/A,,Mostly Cloudy,300,2012-10-05 01:43:00
8:51 PM,33.8,30.2,87,30.04,10.0,WNW,18.4,27.6,N/A,,Overcast,300,2012-10-05 01:51:00
8:53 PM,34.0,30.0,85,30.10,10.0,WNW,17.3,27.6,N/A,,Overcast,300,2012-10-05 01:53:00
9:21 PM,33.8,30.2,87,30.04,10.0,WNW,17.3,33.4,0.00,,Overcast,290,2012-10-05 02:21:00
9:37 PM,33.8,30.2,87,30.04,7.0,WNW,20.7,29.9,0.00,Snow,Light Snow,300,2012-10-05 02:37:00
9:53 PM,34.0,30.9,89,30.09,8.0,WNW,21.9,32.2,0.00,Snow,Light Snow,300,2012-10-05 02:53:00
10:53 PM,34.0,30.0,85,30.11,8.0,WNW,24.2,33.4,0.00,,Overcast,290,2012-10-05 03:53:00
11:53 PM,34.0,28.9,82,30.11,10.0,WNW,24.2,35.7,0.00,,Overcast,300,2012-10-05 04:53:00